United States

Ashburn, VA Weather Archive

Below you will find the last 24 hours of weather readings for Ashburn VA

Ashburn VA Today's Weather Data

Observed at: Ashburn, VA

Hour Observerd Temp Pressure Visibility Humidity Dew Point Wind
15:00 Partly Cloudy 81°F (27.2°C) 98.21 kPa 10 miles 54% 62.6°F (17°C) 18 mph NW 308.75°24 mph
14:00 Partly Cloudy 81°F (27.2°C) 98.21 kPa 10 miles 58% 64.4°F (18°C) 11 mph W 263.75°16 mph
13:00 Fair 79°F (26.1°C) 98.21 kPa 10 miles 65% 66.2°F (19°C) 12 mph NW 308.75°19 mph
12:00 Partly Cloudy 77°F (25°C) 98.21 kPa 10 miles 65% 64.4°F (18°C) 12 mph NW 308.75°19 mph
11:00 Partly Cloudy 73°F (22.8°C) 98.21 kPa 10 miles 74% 64.4°F (18°C) 9 mph NW 308.75°17 mph
10:00 Partly Cloudy 72°F (22.2°C) 98.21 kPa 10 miles 78% 64.4°F (18°C) 8 mph W 263.75°
09:00 Overcast 63°F (17.2°C) 98.21 kPa 10 miles 94% 60.8°F (16°C) 4 mph NW 308.75°
08:00 Overcast 59°F (15°C) 98.21 kPa 10 miles 100% 59°F (15°C) 5 mph NW 308.75°
07:00 Overcast 59°F (15°C) 98.21 kPa 10 miles 100% 59°F (15°C) 5 mph NW 308.75°
06:00 Overcast 59°F (15°C) 98.21 kPa 7 miles 100% 59°F (15°C) 5 mph NW 308.75°
05:00 Light Rain 57°F (13.9°C) 98.21 kPa 4 miles 100% 57.2°F (14°C) 5 mph N 5°
04:00 Rain 59°F (15°C) 98.21 kPa 4 miles 100% 59°F (15°C) 3 mph N 5°
03:00 Overcast 59°F (15°C) 98.21 kPa 7 miles 100% 59°F (15°C) 3 mph NE 38.75°
02:00 Rain 59°F (15°C) 98.21 kPa 7 miles 100% 59°F (15°C) 4 mph NE 38.75°21 mph
01:00 Rain 61°F (16.1°C) 98.21 kPa 10 miles 100% 60.8°F (16°C) 6 mph NE 38.75°
00:00 Rain 63°F (17.2°C) 98.21 kPa 10 miles 88% 59°F (15°C) 4 mph S 173.75°
23:00 Mostly Cloudy 66°F (18.9°C) 98.21 kPa 10 miles 64% 53.6°F (12°C) 5 mph S 173.75°21 mph
22:00 Partly Cloudy 68°F (20°C) 98.21 kPa 10 miles 60% 53.6°F (12°C) 4 mph S 173.75°21 mph
21:00 Light Drizzle 68°F (20°C) 98.21 kPa 10 miles 60% 53.6°F (12°C) 5 mph S 173.75°
20:00 Light Rain 70°F (21.1°C) 98.21 kPa 10 miles 60% 55.4°F (13°C) 5 mph S 173.75°
19:00 Fair 72°F (22.2°C) 98.21 kPa 10 miles 50% 51.8°F (11°C) 8 mph S 173.75°
18:00 Partly Cloudy 72°F (22.2°C) 98.21 kPa 10 miles 50% 51.8°F (11°C) 8 mph S 173.75°
17:00 Overcast 72°F (22.2°C) 98.21 kPa 10 miles 50% 51.8°F (11°C) 6 mph S 173.75°
16:00 Overcast 72°F (22.2°C) 98.21 kPa 10 miles 50% 51.8°F (11°C) 3 mph S 173.75°


Home | Earthquakes | About Us | Contact Us | Privacy

Copyright Friendly Forecast 2012 - 2022